Fort Leonard Wood, MO

4:09 AM CST on December 16, 2017 (GMT -0600)
Waynesville Regional At Forney Field

Weather History for KTBN - April, 2013

Change the Weather History Date:

Sunday, April 7, 2013

  Actual Average Record
Temperature  
Mean Temperature 64 °F -  
Max Temperature 77 °F 63 °F 82 °F (1999)
Min Temperature 52 °F 45 °F 21 °F (2007)
Growing Degree Days 14 (Base 50)    
Moisture  
Dew Point 51 °F    
Average Humidity 67    
Maximum Humidity 100    
Minimum Humidity 31    
Precipitation  
Precipitation 0.29 in - - ()
Sea Level Pressure  
Sea Level Pressure 29.85 in    
Wind  
Wind Speed 7 mph (South)    
Max Wind Speed 16 mph    
Max Gust Speed 30 mph    
Visibility 9 miles    
Events Rain , Thunderstorm    
Averages and records for this station are not official NWS values.
T = Trace of Precipitation, MM = Missing Value Source: NWS Daily Summary

Daily Weather History Graph

Daily Weather History Graph

Search for Another Location

Airport or City:

Trip Planner

Search our weather history database for the weather conditions in past years. The results will help you decide how hot, cold, wet, or windy it might be!

Date:

Astronomy

Apr. 07, 2013 Rise Set
Actual Time 6:44 AM CDT 7:37 PM CDT
Civil Twilight 6:17 AM CDT 8:03 PM CDT
Nautical Twilight 5:46 AM CDT 8:35 PM CDT
Astronomical Twilight 5:13 AM CDT 9:08 PM CDT
Moon 4:59 AM CDT (4/7) 5:11 PM CDT (4/7)
Length of Visible Light 13h 46m
Length of Day
12h 52m
Waning Crescent, 8% of the Moon is Illuminated
Apr 7
Waning Crescent
Apr 10
New
Apr 18
First Quarter
Apr 25
Full
May 2
Last Quarter

Hourly Weather History & Observations

Time (CDT) Temp. Dew Point Humidity Pressure Visibility Wind Dir Wind Speed Gust Speed Precip Events Conditions
12:58 AM 60.8 °F 45.0 °F 56% 29.84 in 10.0 mi SSW 6.9 mph - N/A   Clear
1:58 AM 60.1 °F 45.0 °F 57% 29.84 in 10.0 mi SSW 5.8 mph - N/A   Clear
2:58 AM 58.6 °F 45.0 °F 60% 29.85 in 10.0 mi Variable 2.3 mph - N/A   Clear
3:58 AM 56.8 °F 45.0 °F 64% 29.86 in 10.0 mi SSW 4.6 mph - N/A   Partly Cloudy
4:58 AM 55.0 °F 45.1 °F 69% 29.86 in 10.0 mi South 4.6 mph - N/A   Clear
5:58 AM 53.1 °F 45.5 °F 75% 29.87 in 10.0 mi SSW 5.8 mph - N/A   Clear
6:58 AM 52.3 °F 45.9 °F 79% 29.90 in 10.0 mi SSW 4.6 mph - N/A   Clear
7:58 AM 55.8 °F 48.0 °F 75% 29.91 in 10.0 mi South 4.6 mph - N/A   Clear
8:58 AM 60.8 °F 50.2 °F 68% 29.91 in 10.0 mi SW 4.6 mph - N/A   Clear
9:58 AM 66.0 °F 52.0 °F 60% 29.91 in 10.0 mi Variable 3.5 mph - N/A   Clear
10:58 AM 70.3 °F 51.6 °F 51% 29.91 in 10.0 mi Variable 5.8 mph - N/A   Clear
11:58 AM 72.9 °F 51.6 °F 47% 29.90 in 10.0 mi SW 4.6 mph - N/A   Clear
12:58 PM 77.2 °F 44.1 °F 31% 29.89 in 10.0 mi South 6.9 mph - N/A   Scattered Clouds
1:58 PM 77.5 °F 46.0 °F 33% 29.86 in 10.0 mi SSW 8.1 mph - N/A   Mostly Cloudy
2:58 PM 77.0 °F 45.3 °F 32% 29.84 in 10.0 mi SSE 8.1 mph 19.6 mph N/A   Overcast
3:58 PM 75.2 °F 48.6 °F 39% 29.82 in 10.0 mi South 9.2 mph - N/A   Mostly Cloudy
4:58 PM 75.0 °F 46.4 °F 36% 29.81 in 10.0 mi SSE 12.7 mph - N/A   Overcast
5:58 PM 74.1 °F 45.7 °F 36% 29.78 in 10.0 mi SE 6.9 mph - N/A   Mostly Cloudy
6:58 PM 72.0 °F 49.1 °F 44% 29.80 in 10.0 mi SSE 5.8 mph - N/A   Partly Cloudy
7:58 PM 70.9 °F 51.4 °F 50% 29.79 in 10.0 mi SSE 12.7 mph 18.4 mph N/A   Scattered Clouds
8:42 PM 69.8 °F 53.6 °F 56% 29.81 in 10.0 mi SE 9.2 mph - N/A   Light Drizzle
8:58 PM 67.6 °F 56.8 °F 68% 29.81 in 10.0 mi SE 11.5 mph - 0.00 in Rain , Thunderstorm Light Rain
8:59 PM 66.2 °F 57.2 °F 73% 29.81 in 10.0 mi SE 12.7 mph - N/A Rain , Thunderstorm Light Thunderstorms and Rain
9:34 PM 62.6 °F 59.0 °F 88% 29.88 in 2.5 mi SSW 16.1 mph 29.9 mph N/A Rain , Thunderstorm Heavy Thunderstorms and Rain
9:35 PM 60.8 °F 59.0 °F 94% 29.88 in 2.0 mi SSW 12.7 mph 29.9 mph N/A Rain , Thunderstorm Heavy Thunderstorms and Rain
9:40 PM 59.0 °F 57.2 °F 94% 29.87 in 1.8 mi South 10.4 mph 26.5 mph N/A Rain , Thunderstorm Light Thunderstorms and Rain
9:45 PM 57.2 °F 57.2 °F 100% 29.85 in 5.0 mi SSE 8.1 mph 21.9 mph N/A Rain , Thunderstorm Light Thunderstorms and Rain
9:56 PM 55.4 °F 55.4 °F 100% 29.85 in 10.0 mi South 5.8 mph - N/A Rain , Thunderstorm Light Rain
9:58 PM 55.4 °F 55.4 °F 100% 29.84 in 10.0 mi SSE 9.2 mph - 0.29 in Rain , Thunderstorm Light Rain
10:04 PM 55.4 °F 55.4 °F 100% 29.84 in 10.0 mi South 5.8 mph - N/A Thunderstorm Overcast
10:58 PM 54.9 °F 54.9 °F 100% 29.82 in 10.0 mi SSE 5.8 mph - 0.00 in   Overcast
11:58 PM 58.6 °F 58.6 °F 100% 29.83 in 10.0 mi South 9.2 mph - N/A   Scattered Clouds